Weather History for Quincy, IL

Change the Weather History Date:

Friday, May 3, 2013

  Actual Average Record
Temperature  
Mean Temperature 42 °F 59 °F  
Max Temperature 46 °F 69 °F 88 °F (1949)
Min Temperature 37 °F 49 °F 31 °F (2005)
Degree Days  
Heating Degree Days 23 7  
Month to date heating degree days 40 22  
Since 1 July heating degree days 5525 5452  
Cooling Degree Days 0 1  
Month to date cooling degree days 5 3  
Year to date cooling degree days 19 21  
Moisture  
Dew Point 37 °F    
Average Humidity 89    
Maximum Humidity 93    
Minimum Humidity 85    
Precipitation  
Precipitation 1.97 in 0.14 in 2.43 in (1935)
Month to date precipitation 2.32 0.39  
Year to date precipitation 16.17 9.94  
Sea Level Pressure  
Sea Level Pressure 29.95 in    
Wind  
Wind Speed 14 mph (NNW)    
Max Wind Speed 20 mph    
Max Gust Speed 26 mph    
Visibility 6 miles    
Events Rain , Snow    
T = Trace of Precipitation, MM = Missing Value Source: NWS Daily Summary

Daily Weather History Graph

Daily Weather History Graph

Search for Another Location

Airport:

Trip Planner

Search our weather history database for the weather conditions in past years. The results will help you decide how hot, cold, wet, or windy it might be!

Date:

Astronomy

May. 03, 2013 Rise Set
Actual Time 6:02 AM CDT 8:01 PM CDT
Civil Twilight 5:32 AM CDT 8:31 PM CDT
Nautical Twilight 4:56 AM CDT 9:07 PM CDT
Astronomical Twilight 4:17 AM CDT 9:46 PM CDT
Moon 2:26 AM CDT (5/3) 1:56 PM CDT (5/3)
Length of Visible Light 14h 58m
Length of Day
13h 59m
Last Quarter, 37% of the Moon is Illuminated
May 3
Last Quarter
May 9
New
May 17
First Quarter
May 24
Full
May 31
Last Quarter

Hourly Weather History & Observations

Time (CDT) Temp. Windchill Dew Point Humidity Pressure Visibility Wind Dir Wind Speed Gust Speed Precip Events Conditions
12:10 AM 39.2 °F 31.2 °F 35.6 °F 87% 30.15 in 7.0 mi NNW 13.8 mph - 0.02 in Rain Light Rain
12:54 AM 37.9 °F 29.6 °F 36.0 °F 93% 30.14 in 10.0 mi NNW 13.8 mph - 0.05 in Rain Light Rain
1:54 AM 37.9 °F 28.9 °F 35.1 °F 89% 30.10 in 10.0 mi North 16.1 mph 23.0 mph 0.00 in   Overcast
2:54 AM 37.9 °F 28.9 °F 35.1 °F 89% 30.07 in 5.0 mi North 16.1 mph - 0.01 in Snow Light Snow
3:54 AM 37.9 °F 29.6 °F 36.0 °F 93% 30.07 in 4.0 mi NNW 13.8 mph - 0.08 in Rain Rain
4:54 AM 37.0 °F 28.5 °F 35.1 °F 93% 30.05 in 6.0 mi NNW 13.8 mph - 0.14 in Rain Rain
5:54 AM 37.0 °F 28.1 °F 35.1 °F 93% 30.06 in 4.0 mi NNW 15.0 mph - 0.10 in Rain Rain
6:07 AM 37.4 °F 28.2 °F 35.6 °F 93% 30.04 in 4.0 mi NNW 16.1 mph - 0.05 in Rain Rain
6:16 AM 37.4 °F 29.3 °F 35.6 °F 93% 30.04 in 7.0 mi NNW 12.7 mph - 0.06 in Rain Light Rain
6:24 AM 37.4 °F 28.5 °F 35.6 °F 93% 30.03 in 8.0 mi NNW 15.0 mph - 0.06 in Rain Light Rain
6:54 AM 37.0 °F 28.5 °F 35.1 °F 93% 30.04 in 6.0 mi NNW 13.8 mph - 0.09 in Rain Light Rain
7:54 AM 37.0 °F 27.7 °F 34.0 °F 89% 30.02 in 4.0 mi North 16.1 mph - 0.10 in Rain Rain
8:54 AM 37.0 °F 28.1 °F 34.0 °F 89% 30.01 in 7.0 mi North 15.0 mph - 0.04 in Rain Light Rain
9:54 AM 37.0 °F 28.5 °F 34.0 °F 89% 30.01 in 2.0 mi NNW 13.8 mph - 0.09 in Rain Heavy Rain
10:02 AM 37.4 °F 28.5 °F 33.8 °F 87% 30.00 in 2.0 mi NNW 15.0 mph - 0.05 in Rain Heavy Rain
10:16 AM 37.4 °F 29.8 °F 35.6 °F 93% 30.00 in 3.0 mi NNW 11.5 mph - 0.09 in Rain Rain
10:24 AM 37.4 °F 28.9 °F 33.8 °F 87% 30.00 in 4.0 mi North 13.8 mph - 0.11 in Rain Rain
10:33 AM 37.4 °F 29.3 °F 33.8 °F 87% 30.00 in 2.5 mi NNW 12.7 mph - 0.15 in Rain Rain
10:50 AM 37.4 °F 28.5 °F 35.6 °F 93% 29.99 in 5.0 mi North 15.0 mph - 0.20 in Rain Rain
10:54 AM 37.0 °F 28.1 °F 34.0 °F 89% 30.01 in 5.0 mi North 15.0 mph - 0.21 in Rain Rain
11:05 AM 37.4 °F 28.2 °F 33.8 °F 87% 29.98 in 5.0 mi North 16.1 mph - 0.02 in Rain Rain
11:44 AM 37.4 °F 28.9 °F 35.6 °F 93% 29.99 in 6.0 mi North 13.8 mph - 0.09 in Rain Light Rain
11:51 AM 37.4 °F 28.2 °F 35.6 °F 93% 29.97 in 6.0 mi North 16.1 mph - 0.10 in Rain Rain
11:54 AM 37.9 °F 29.2 °F 35.1 °F 89% 29.99 in 6.0 mi North 15.0 mph - 0.10 in Rain Rain
12:54 PM 39.0 °F 30.3 °F 36.0 °F 89% 29.95 in 10.0 mi North 16.1 mph - 0.06 in Rain Light Rain
1:54 PM 39.0 °F 31.0 °F 37.0 °F 93% 29.93 in 7.0 mi North 13.8 mph - 0.05 in Rain Light Rain
2:54 PM 39.9 °F 32.1 °F 37.0 °F 89% 29.93 in 4.0 mi North 13.8 mph - 0.08 in Rain Rain
3:54 PM 39.9 °F 33.4 °F 37.9 °F 93% 29.92 in 5.0 mi NNW 10.4 mph - 0.12 in Rain Rain
4:52 PM 41.0 °F 33.9 °F 37.4 °F 87% 29.88 in 9.0 mi NNW 12.7 mph - 0.08 in Rain Light Rain
4:54 PM 41.0 °F 33.9 °F 37.9 °F 89% 29.89 in 10.0 mi NNW 12.7 mph - 0.08 in Rain Light Rain
5:54 PM 39.9 °F 32.1 °F 37.9 °F 93% 29.89 in 7.0 mi NW 13.8 mph - 0.05 in Rain Light Rain
6:54 PM 39.9 °F 31.4 °F 37.9 °F 93% 29.87 in 4.0 mi NNW 16.1 mph - 0.06 in Rain Rain
7:54 PM 41.0 °F 33.9 °F 37.9 °F 89% 29.83 in 8.0 mi North 12.7 mph - 0.06 in Rain Light Rain
8:30 PM 39.2 °F 30.8 °F 37.4 °F 93% 29.84 in 2.0 mi NW 15.0 mph 21.9 mph 0.18 in Rain Heavy Rain
8:40 PM 39.2 °F 32.5 °F 37.4 °F 93% 29.84 in 2.5 mi NW 10.4 mph - 0.27 in Rain Heavy Rain
8:54 PM 39.9 °F 33.4 °F 37.9 °F 93% 29.86 in 3.0 mi NNW 10.4 mph - 0.34 in Rain Rain
9:18 PM 39.2 °F 35.0 °F 39.2 °F 100% 29.84 in 8.0 mi NW 5.8 mph - 0.04 in Rain Light Rain
9:37 PM 41.0 °F 35.8 °F 39.2 °F 93% 29.83 in 9.0 mi NNW 8.1 mph - 0.05 in Rain Light Rain
9:54 PM 41.0 °F 33.9 °F 39.0 °F 93% 29.82 in 9.0 mi NNW 12.7 mph - 0.07 in Rain Light Rain
10:37 PM 42.8 °F 36.6 °F 39.2 °F 87% 29.80 in 10.0 mi North 11.5 mph - 0.01 in Rain Light Rain
10:46 PM 42.8 °F 37.0 °F 39.2 °F 87% 29.80 in 10.0 mi North 10.4 mph - 0.02 in Rain Light Rain
10:54 PM 42.1 °F 36.6 °F 39.9 °F 92% 29.81 in 10.0 mi NNE 9.2 mph - 0.02 in Rain Light Rain
11:10 PM 42.8 °F 37.0 °F 41.0 °F 93% 29.78 in 10.0 mi North 10.4 mph - 0.00 in Rain Light Rain
11:54 PM 44.1 °F 37.7 °F 42.1 °F 93% 29.78 in 10.0 mi NNE 12.7 mph - 0.01 in Rain Light Rain